Zurück zum Katalog

COSMOS 1015

AktivNavigationLEO
NORAD 10932·PAYLOAD·🇷🇺 Russia

Gestartet Jun 7, 1978 von Plesetsk Cosmodrome

Loading…

Nächste Überflüge (nächste 24 Stunden)

TLE

AktuellSource: Space-Track

Epoche: Sep 14, 2026, 11:30 UTC

1 10932U 78056C   26257.47945758  .00000009  00000-0  17902-3 0  9993
2 10932  74.0276 158.7002 0027308   1.7257 109.1562 12.42817203189886

Verfolge COSMOS 1015 in Echtzeit mit AllMySat

Download on the App Store